Vorticity
6 7 13 17 -2 -11 -3 1 5 3 12 7 3 7 3 10 6 10 13 7 14 15 10 5 13 13 9 13 11 12 5 5 12 10 14 7 3 9 5 10 8 6 9 5 6 4 6 4 3 8 7 7 7 8 8 8 7 6 7 7 6 4 4 5 7 8 7 8 7 8 7 6 6 5 5 5 6 6 6 5 3 3 5 6 8 8 7 7 5 6 8 7 6 7 8 7 6
4 4 5 12 2 -11 -4 5 3 -2 12 7 -3 8 13 11 4 7 7 8 13 9 6 5 7 11 9 7 10 10 6 5 3 2 10 11 6 9 7 9 11 9 10 5 6 3 3 3 -0 3 6 6 5 7 10 11 10 9 8 8 9 8 7 5 5 7 8 9 8 8 8 8 7 5 5 5 6 7 8 7 8 7 6 4 3 5 7 8 6 7 8 8 7 7 8 7 5
7 10 4 9 3 -11 -5 7 10 -4 1 11 -1 0 14 11 -0 3 8 9 9 9 9 9 6 10 12 7 9 7 5 6 7 8 7 9 9 12 9 7 11 9 10 8 5 4 2 1 0 1 4 6 4 4 6 8 9 10 9 8 9 9 9 8 7 6 8 10 9 8 9 9 7 7 7 7 6 8 10 9 10 12 12 7 4 4 3 3 4 6 6 6 5 4 5 5 5
9 13 6 15 9 -3 -7 -3 13 4 1 13 -1 -4 11 13 6 2 8 11 8 10 10 12 10 6 4 8 14 12 15 11 4 11 11 10 5 6 7 5 9 9 9 10 7 7 5 3 3 3 3 4 5 4 3 5 7 8 9 8 7 7 8 9 10 9 10 10 10 9 9 8 7 7 7 8 8 8 9 9 10 10 10 11 12 13 11 9 7 8 8 8 7 8 8 8 9
5 -2 -4 11 8 9 4 -8 8 7 2 4 -3 1 5 6 6 3 8 3 3 9 10 13 11 12 8 7 11 9 21 24 10 8 15 16 9 4 7 7 5 5 7 9 9 9 9 7 7 7 5 5 6 5 4 4 6 8 8 8 7 5 7 9 11 12 12 11 10 9 8 8 8 8 8 9 9 8 7 7 9 8 8 9 9 10 12 12 10 10 10 10 10 11 10 10 10
11 -3 -11 7 8 14 5 -8 9 5 4 2 -5 5 1 6 2 2 15 -3 3 11 1 7 5 13 15 7 6 3 12 20 15 9 13 15 13 10 8 11 8 7 8 8 10 10 11 10 10 9 8 8 6 4 6 6 5 7 8 8 7 6 5 7 9 10 11 11 10 10 11 11 11 11 10 9 9 9 9 9 8 9 9 9 7 6 7 7 7 8 8 8 8 8 7 7 6
20 13 1 0 -15 -5 6 1 11 -2 10 18 1 13 2 8 11 -2 13 -3 7 11 -6 6 3 7 11 5 4 -1 4 9 10 8 9 11 12 15 10 12 12 10 9 9 12 11 11 10 11 10 8 7 6 7 6 7 7 7 8 8 8 8 7 7 7 8 8 8 8 9 11 12 12 11 9 8 8 8 9 9 9 9 9 9 9 7 7 7 7 7 7 7 6 6 5 4 3
12 6 4 10 -7 -9 4 5 8 -11 13 29 -11 10 13 10 17 -5 6 4 8 5 -6 8 -2 4 8 2 6 3 4 5 7 5 5 7 7 10 9 10 10 10 9 9 9 11 12 10 10 8 7 7 8 10 7 6 7 8 7 8 8 8 9 8 8 9 10 10 10 11 11 11 10 8 7 8 8 9 8 8 8 9 9 9 9 7 7 6 6 6 6 7 6 5 4 4 4
2 -2 -8 1 15 9 7 5 11 -2 4 15 -25 -2 19 7 14 4 13 6 1 7 -1 4 0 8 10 3 5 1 4 7 8 6 5 6 5 5 6 8 8 8 9 9 8 9 11 9 10 9 9 9 9 9 8 7 6 6 7 7 7 7 7 7 8 8 11 13 13 13 13 12 10 10 10 10 9 10 9 8 8 8 9 10 9 8 7 6 6 6 6 6 7 5 4 4 3
-3 2 3 -6 4 3 10 5 6 11 -7 -2 -2 8 10 5 17 5 10 8 4 15 -1 -2 13 6 -0 6 4 1 7 8 11 10 9 7 6 5 4 5 6 8 8 9 10 8 9 9 10 11 10 8 9 9 8 7 6 6 6 6 6 6 6 6 7 7 9 10 10 11 11 10 9 10 10 9 9 9 8 8 8 8 9 9 10 9 8 7 6 7 6 6 7 7 6 5 4
8 -5 -3 -4 7 3 10 4 -5 13 -4 -8 10 7 -1 8 12 -6 11 20 1 6 2 -2 17 8 -2 8 4 7 9 5 10 10 11 11 10 9 7 6 5 6 6 7 8 8 8 9 9 10 13 10 9 9 8 7 6 7 6 8 8 8 8 8 8 7 8 7 7 7 7 8 8 9 8 8 8 8 8 7 8 8 9 9 9 10 9 8 7 7 6 7 7 7 8 7 7
23 -1 -15 -7 10 5 5 12 4 14 10 -6 3 9 10 10 -1 2 19 16 -4 -2 9 1 6 11 6 6 1 4 2 2 10 9 10 9 10 10 9 11 9 9 7 6 6 7 7 7 9 8 10 11 9 8 9 10 8 10 10 10 10 9 7 6 8 8 9 8 6 6 6 7 7 8 8 8 8 8 8 7 7 7 8 8 9 10 10 9 7 7 6 7 6 7 8 8 8
23 16 16 19 9 4 5 6 0 9 12 -9 1 13 9 9 3 12 10 7 10 -8 1 11 9 12 4 2 5 5 -0 4 8 7 10 8 9 9 8 10 10 12 11 11 8 6 6 6 7 6 8 8 9 9 9 11 11 11 10 10 8 8 8 8 8 9 10 8 6 5 6 6 6 7 7 7 7 8 8 8 8 9 9 8 9 9 9 9 8 8 7 7 6 7 7 7 8
22 20 22 14 -1 13 12 1 8 13 8 -9 10 17 -3 9 11 7 2 7 15 -2 14 18 -0 6 7 9 13 8 1 5 7 6 9 9 10 9 9 9 7 11 10 13 13 10 8 6 6 5 5 5 7 9 9 9 8 8 7 6 6 6 8 10 9 9 9 7 6 7 6 6 6 6 6 7 6 7 9 8 8 9 10 7 8 9 9 9 8 8 7 7 6 6 7 6 7
12 8 6 -4 -7 12 -1 -1 23 6 -2 -3 5 14 -1 6 9 6 10 13 10 6 14 0 -3 6 -0 8 11 5 4 6 8 7 11 11 12 11 10 10 9 10 8 10 12 14 13 9 8 5 5 7 8 9 9 9 5 7 5 1 3 7 6 7 8 7 7 6 6 7 6 6 6 6 6 7 7 7 9 7 6 8 10 8 8 8 8 8 8 8 7 6 6 6 6 6 7
8 5 1 -1 0 10 1 4 17 -0 9 6 -13 4 7 6 11 9 9 10 5 2 2 4 15 -0 -13 5 2 2 7 6 9 7 11 11 11 11 10 10 10 10 9 9 8 10 12 13 12 8 6 6 9 7 9 10 8 8 6 3 4 7 6 6 9 7 7 7 6 6 6 6 5 5 5 6 7 7 8 8 7 7 9 10 10 8 7 8 8 8 7 6 6 6 7 6 8
12 15 6 1 -1 8 12 4 6 9 21 8 -6 11 10 9 15 12 7 4 5 7 16 20 3 -15 4 14 -4 3 7 3 8 6 7 11 12 11 10 10 10 10 10 10 9 9 10 12 13 13 8 5 9 9 8 8 8 9 5 5 6 8 7 7 11 10 7 7 8 6 5 6 6 5 5 5 7 7 8 8 8 6 6 8 8 7 7 8 8 7 8 7 6 6 7 7 7
4 15 23 7 -9 8 13 2 6 12 17 14 15 16 6 13 15 13 13 5 7 7 14 25 9 -3 10 5 -2 8 7 5 6 6 7 7 12 13 11 10 9 10 10 10 11 11 11 10 11 14 12 10 14 12 10 8 7 9 6 6 7 8 8 7 10 10 12 13 11 9 7 6 6 5 5 5 7 8 8 8 7 5 5 7 7 7 8 8 7 7 7 7 7 6 6 7 8
4 7 22 10 -3 13 15 6 7 4 12 14 13 11 5 14 9 7 14 9 17 11 1 18 19 -5 -18 -10 6 8 5 10 6 7 10 5 8 11 12 11 10 10 9 10 10 11 12 11 9 10 13 13 14 14 13 12 10 9 7 10 11 10 12 11 10 7 11 12 10 12 10 6 7 8 5 5 6 7 7 6 7 7 6 6 7 8 9 8 7 7 7 7 7 6 6 7 7
0 3 11 13 12 14 10 7 5 2 9 11 10 10 2 5 5 4 9 10 19 9 -13 3 14 -8 -10 2 2 3 6 6 6 8 8 7 8 7 10 10 10 12 11 10 9 11 10 11 11 6 9 11 12 14 13 14 13 11 8 9 12 13 13 12 12 10 9 10 10 10 8 6 8 11 9 6 5 5 4 5 5 6 7 6 7 8 9 9 7 6 7 7 7 6 7 7 7
-4 5 9 12 12 7 8 6 4 3 4 7 9 10 6 5 3 -1 2 9 18 13 -4 7 11 -17 -5 13 -3 2 7 1 4 5 4 7 9 8 8 7 7 9 10 11 8 9 9 9 13 8 6 9 11 12 12 14 13 12 9 6 8 10 11 11 13 14 11 10 9 8 8 10 12 14 16 11 6 6 5 5 4 5 8 8 8 8 9 9 8 7 7 7 7 7 7 7 7
1 7 9 8 7 4 9 6 4 5 4 6 5 7 10 5 3 1 1 4 11 21 17 24 28 -8 -7 14 -3 -4 3 2 3 1 4 4 6 10 8 5 5 7 8 11 11 9 8 7 12 9 5 10 12 10 11 12 12 12 11 11 12 9 9 9 7 10 11 10 9 8 5 12 18 17 19 17 10 10 9 7 8 7 6 7 7 7 8 8 8 8 7 6 7 7 7 7 7
3 6 4 7 9 5 8 7 5 3 3 5 5 4 4 6 8 5 2 1 -1 8 10 15 24 3 1 13 -0 -1 1 3 3 -1 3 2 4 8 9 7 2 6 7 6 11 11 10 8 10 7 4 10 12 12 11 9 12 13 11 11 11 8 7 5 4 8 11 12 12 10 4 11 17 9 12 16 10 10 12 13 10 6 6 8 8 7 6 6 6 7 7 7 6 7 7 7 7
7 7 5 9 9 5 7 8 7 5 4 4 6 5 4 6 7 11 9 5 0 -1 2 5 11 7 9 7 -3 2 -1 -1 6 1 1 2 4 5 7 10 3 4 6 4 6 8 11 10 10 8 5 10 11 12 12 12 14 12 11 11 8 8 8 7 9 10 9 10 11 12 13 15 12 4 10 16 12 8 12 17 9 4 9 9 8 9 9 9 7 7 9 8 5 6 7 7 7
9 6 5 5 1 8 15 12 8 5 5 3 3 4 4 5 13 22 10 3 3 -1 5 8 18 18 9 7 3 5 3 -2 2 0 3 4 4 6 5 8 7 3 3 5 4 3 7 9 11 10 8 9 9 10 12 16 16 12 13 13 11 10 7 7 10 9 9 10 10 13 13 9 3 3 9 13 15 10 8 15 7 5 12 7 6 9 7 8 10 9 9 8 6 6 6 6 7
6 4 4 5 2 13 17 12 12 9 11 7 4 5 2 10 20 10 -2 9 3 -4 14 14 15 6 -4 11 -5 -12 6 -1 -2 5 6 6 5 6 5 6 7 5 3 5 5 4 4 6 9 8 9 10 8 10 12 15 16 14 16 13 11 11 9 9 10 10 10 9 10 11 9 7 6 8 10 9 12 11 9 13 10 12 17 9 5 8 7 7 9 9 8 9 7 7 7 6 6
10 7 5 5 4 15 13 11 13 7 10 9 6 5 4 15 20 11 11 13 -10 -7 18 12 13 4 -1 15 -17 -14 20 1 1 15 1 -0 7 7 6 6 6 5 4 4 5 5 4 5 7 6 8 10 8 9 12 14 14 15 16 13 12 12 12 9 8 11 10 9 9 9 9 11 12 12 12 9 9 11 10 11 11 11 11 8 5 8 10 6 6 7 8 9 7 6 7 6 6
9 8 10 6 12 24 7 -5 3 5 11 13 9 5 7 8 10 23 16 -11 -14 14 17 -1 14 12 2 11 -2 7 19 -5 -0 14 1 -4 3 7 6 5 7 4 1 4 4 3 5 5 7 7 8 10 9 9 10 12 13 13 14 14 14 13 11 10 13 16 13 10 9 7 8 9 11 11 9 8 7 8 9 10 14 12 7 8 9 8 10 9 8 8 7 9 8 7 7 6 6
6 12 13 4 20 27 -11 -17 8 13 13 11 8 9 12 4 5 19 2 -13 5 19 9 -2 4 6 1 5 11 7 -5 -0 11 12 12 4 -1 5 6 5 6 4 1 3 3 2 5 5 7 8 7 10 10 9 9 11 10 12 16 14 15 15 11 12 14 14 14 13 10 8 9 8 9 10 9 9 7 8 16 17 18 21 14 11 10 9 15 14 10 8 7 10 10 8 6 6 5
6 6 3 -13 3 11 -9 4 12 -2 7 15 8 15 20 9 8 2 -6 13 14 -4 4 12 3 7 10 0 13 12 -9 8 21 16 17 9 4 2 2 7 5 3 4 3 3 3 3 2 5 8 8 9 10 10 9 10 9 12 18 14 15 18 15 16 14 10 14 14 11 9 9 9 7 7 9 11 9 10 17 14 12 18 14 10 7 11 18 10 7 10 6 8 9 8 7 5 4
2 -2 -0 -16 -9 6 8 16 2 -20 -5 7 -0 15 19 2 3 -3 0 24 10 -7 2 6 8 20 17 -2 10 13 -12 -3 9 5 7 9 15 6 -2 7 6 4 3 2 3 3 4 2 2 6 8 8 8 10 10 10 10 12 14 10 12 15 12 13 12 11 14 12 12 12 9 10 9 8 8 11 11 10 9 7 9 13 11 7 6 13 18 6 5 12 7 7 8 8 9 6 4
11 7 6 -1 3 10 7 6 7 -5 -5 6 4 16 14 -4 10 6 -4 4 -2 5 5 -2 11 19 12 1 4 -0 -20 -3 10 -1 2 9 18 22 11 -0 2 8 2 -0 1 2 5 2 0 3 6 9 8 9 11 10 10 12 13 11 13 12 10 11 10 9 9 9 12 11 9 11 10 9 9 10 12 12 10 11 13 12 10 8 8 11 11 3 4 10 8 8 8 7 10 8 7
4 8 8 8 5 -0 1 1 9 6 5 19 7 3 9 9 25 12 -1 11 3 7 8 4 10 3 2 2 2 -0 -13 -1 11 4 6 8 17 28 14 -8 -2 10 4 1 1 1 6 3 2 1 3 8 8 7 10 11 9 10 12 13 12 8 9 12 12 12 9 9 11 10 11 12 10 9 9 10 13 14 12 13 14 13 11 9 9 8 8 7 8 11 10 8 7 9 10 9 10
6 16 12 9 4 -2 8 1 -2 3 4 10 -8 -19 -2 13 19 2 3 16 2 3 10 6 7 4 12 14 3 -1 -1 -0 1 3 6 12 22 21 6 -3 2 9 4 1 1 2 4 4 3 1 3 5 8 8 8 12 11 8 8 11 12 10 11 11 12 15 12 10 10 10 10 10 11 11 10 10 10 10 9 12 15 14 12 10 12 15 18 16 9 11 11 8 7 8 9 8 9
13 17 9 9 9 4 12 3 -2 8 6 10 6 -6 -1 10 14 7 11 10 -3 6 9 1 10 17 17 14 -2 -11 6 17 13 15 11 11 20 15 9 7 6 11 10 0 -1 4 4 5 5 1 3 3 5 8 5 9 13 11 9 8 12 12 13 12 10 12 15 15 11 9 10 11 12 11 11 11 10 9 7 10 13 13 12 10 13 18 20 11 3 10 10 7 8 6 6 6 6
8 9 5 9 8 7 17 10 6 12 3 5 11 6 2 2 10 18 18 11 8 12 4 -2 9 14 5 -1 -6 -12 3 17 15 17 10 3 10 10 9 13 10 7 12 7 -4 3 5 5 8 3 2 4 4 6 4 4 7 11 11 7 9 10 11 12 9 8 14 19 16 11 11 12 12 10 10 10 12 12 8 9 11 13 14 11 11 14 12 3 2 12 10 6 8 5 7 5 5
5 2 5 8 5 12 13 4 14 22 11 6 2 -4 3 14 18 18 15 7 13 20 12 3 2 10 9 1 -2 -13 -9 6 6 8 8 4 11 14 11 25 28 2 6 19 2 1 8 5 9 6 3 4 3 4 4 2 2 6 9 8 7 6 7 9 8 6 8 17 21 16 13 12 10 9 9 9 12 12 9 11 12 13 12 7 8 9 8 8 9 14 12 7 9 9 10 8 6
3 10 19 10 -2 8 12 7 9 1 -0 10 6 2 19 34 16 3 21 20 9 18 24 12 1 7 6 1 9 -1 -10 5 6 3 6 4 13 21 11 19 31 3 -6 15 11 5 8 6 9 7 5 4 3 4 4 3 2 3 6 8 7 5 4 5 5 5 4 10 18 19 15 11 8 8 10 11 11 10 8 8 8 12 13 8 11 12 10 13 14 14 9 5 12 13 8 8 8
14 17 15 9 2 1 7 11 -4 -21 -7 12 16 22 21 15 0 -6 16 19 3 9 23 19 8 11 4 -6 12 12 -1 9 11 5 4 2 11 23 13 8 17 4 -7 8 15 9 8 8 8 8 8 5 4 4 2 3 3 2 5 6 7 6 4 4 5 5 4 5 10 17 18 13 11 9 10 14 13 10 8 5 5 11 14 13 13 14 14 17 19 15 5 5 14 10 3 10 10
14 6 4 14 19 5 -6 -6 -7 -4 10 16 21 27 10 -3 3 5 8 10 8 9 15 18 7 5 1 -12 1 9 4 11 8 3 3 3 17 24 14 9 11 8 6 9 10 10 11 10 8 10 10 6 5 5 2 2 1 2 4 4 7 6 4 4 4 4 6 6 4 9 15 14 14 11 9 14 16 13 11 8 9 11 13 14 13 13 13 16 18 12 3 10 19 9 3 13 13
10 19 15 2 -0 -1 -3 -5 3 9 10 14 16 14 11 9 6 6 10 14 16 11 10 15 10 5 -6 -13 5 11 7 8 -4 -2 4 2 16 19 6 7 12 13 17 13 5 6 11 10 10 12 10 6 5 4 4 3 1 2 2 4 7 6 6 4 3 3 4 8 7 3 7 12 15 13 10 12 15 15 12 9 11 12 13 14 11 11 10 9 10 7 10 18 16 7 5 9 11
6 19 -4 -22 -11 4 12 9 8 8 10 21 23 15 13 9 2 1 3 7 14 7 -1 4 10 9 -8 -16 5 15 10 6 -5 3 12 5 10 11 5 10 12 11 14 14 10 7 7 8 11 13 12 9 5 4 5 4 3 3 2 4 6 6 6 4 3 4 2 7 11 5 3 6 11 13 13 13 15 17 15 9 8 11 12 12 10 9 9 9 8 9 16 18 9 8 15 12 6
6 12 -11 -7 11 10 9 6 4 11 18 24 26 21 5 -6 5 14 7 10 17 7 7 17 5 -4 -5 -9 4 12 6 4 4 10 13 9 6 3 10 18 10 6 9 11 14 11 5 5 8 12 14 9 6 5 4 5 4 3 3 3 5 5 5 5 4 3 1 3 10 13 6 1 6 11 13 14 15 17 17 12 8 8 8 8 12 11 10 10 10 11 15 12 6 7 13 11 7
13 13 4 10 12 9 11 13 19 20 12 9 14 10 -2 3 20 22 14 14 13 3 6 12 -5 -8 5 1 0 3 -4 -0 13 15 10 8 5 3 14 16 4 4 9 6 11 15 10 6 4 7 12 10 9 7 3 5 4 3 4 3 4 5 4 5 3 2 2 -2 3 14 14 5 1 5 11 14 15 15 15 14 11 10 8 6 7 11 12 12 12 14 14 11 9 9 6 3 5
12 8 9 10 10 16 15 13 18 10 -9 -5 17 12 -3 12 19 10 12 9 1 -5 -12 -6 5 9 2 -10 -3 4 -3 -0 10 10 5 4 9 12 13 11 6 6 9 4 7 15 14 10 5 1 7 11 9 8 4 3 4 4 4 3 3 5 4 5 3 1 3 -1 -3 7 16 14 4 1 5 10 15 15 13 13 13 12 11 8 6 8 14 17 17 16 14 11 8 8 5 -1 -1
9 11 10 9 15 15 8 12 16 12 3 -1 18 20 1 7 14 12 19 6 -7 -5 -5 8 16 1 -10 -9 1 6 -2 -2 2 1 0 6 18 18 9 10 10 5 7 6 4 10 10 11 10 2 3 8 7 8 6 3 3 3 4 4 3 4 5 5 4 2 3 3 -2 -1 10 18 12 3 1 4 10 13 13 13 15 16 12 9 8 8 12 18 16 12 13 11 7 7 6 2 4
9 12 7 7 15 6 7 29 25 13 12 4 11 17 7 11 15 12 7 -10 -7 6 5 12 5 -14 -7 1 1 6 4 2 3 0 4 12 11 0 -5 3 6 4 8 9 5 7 8 8 12 7 5 7 6 7 7 5 4 2 3 4 2 3 5 5 6 4 2 4 3 -1 2 13 17 8 0 1 4 8 12 13 15 18 14 10 9 7 9 14 12 7 7 9 10 13 13 9 8
7 8 6 8 10 6 12 24 15 5 11 13 11 4 1 7 2 -3 -6 -14 1 12 -2 -2 -4 -8 5 9 6 9 5 4 6 -2 2 9 -1 -8 -3 3 7 10 10 9 8 7 6 6 9 9 8 7 6 6 7 7 4 2 3 3 2 2 2 5 7 6 4 3 5 4 -0 5 15 15 4 0 1 4 8 12 14 14 12 12 12 9 8 9 10 11 11 10 10 10 11 10 8
7 8 7 6 4 8 13 7 3 10 16 11 1 -7 -0 6 -2 -4 -0 0 11 16 9 7 4 7 17 15 6 -1 -5 1 0 -8 -1 8 7 9 8 -0 2 9 8 8 10 8 6 4 6 9 9 5 2 2 4 6 6 4 1 1 3 2 1 3 4 7 8 4 5 8 4 2 8 15 12 4 1 2 3 7 13 13 11 11 13 14 13 9 9 11 13 12 11 9 7 9 10
8 7 3 9 8 4 6 3 2 8 9 2 -3 1 7 11 15 11 -1 -2 10 13 13 12 8 9 9 0 -5 -3 2 4 -0 2 7 5 8 10 2 1 9 11 11 10 8 8 7 4 4 7 8 7 7 7 7 4 3 4 4 3 3 2 0 2 3 6 8 6 5 8 7 3 2 9 14 11 6 2 -0 3 8 13 15 12 11 14 15 14 12 11 10 8 10 11 6 6 9
6 3 5 16 8 -2 3 6 4 4 6 4 5 12 10 14 29 21 -1 0 14 14 8 5 1 -2 -3 -1 5 8 7 2 3 9 4 -4 4 3 -0 13 15 2 6 13 10 9 7 4 5 6 5 8 13 16 16 11 4 -1 -1 2 4 5 3 0 1 6 8 7 5 7 9 6 3 3 7 11 12 8 3 1 3 8 13 14 13 11 12 14 12 9 10 9 10 13 11 8 8
3 2 14 11 -7 -4 7 5 4 4 4 5 8 8 6 17 29 16 4 9 8 0 -3 0 3 2 2 5 4 3 0 0 7 11 4 4 9 4 5 17 10 2 15 19 10 7 7 6 7 6 2 2 5 8 12 18 18 8 -2 -4 -1 3 6 4 2 3 7 7 3 4 8 8 6 3 2 6 10 13 10 3 1 4 6 11 15 13 11 15 13 8 11 15 13 15 15 12 8
4 6 11 0 -6 6 7 0 4 5 3 4 5 4 9 27 23 -2 -3 3 -8 -12 -5 0 3 2 3 4 -0 1 5 4 6 6 3 5 2 -3 2 6 3 13 28 23 11 8 8 8 8 7 4 3 4 4 2 7 20 23 12 0 -3 -1 2 3 4 5 5 4 3 3 5 6 8 5 2 3 5 12 17 8 1 2 4 5 10 12 12 15 16 12 15 19 15 13 14 12 9
7 9 6 2 6 8 3 5 8 5 2 2 4 7 10 17 11 -2 6 10 -5 -6 1 1 -1 -1 4 8 3 4 9 6 2 1 2 3 0 -2 2 -0 -5 -1 2 2 8 12 10 9 9 8 6 7 7 8 6 2 10 24 24 11 2 -0 0 -0 1 6 6 4 2 2 2 3 6 6 4 3 2 8 17 17 6 0 3 3 3 8 11 14 17 13 15 20 17 14 15 14 12
7 7 6 6 6 4 7 9 2 -4 0 3 5 7 8 15 23 22 16 5 -7 -8 -2 3 3 3 5 5 3 3 4 0 -3 0 3 2 2 3 7 7 -1 -6 -8 -5 7 17 15 10 8 8 8 8 6 7 10 5 3 13 21 21 14 3 -1 0 -1 -1 3 7 6 1 1 3 4 6 5 4 3 5 14 21 13 0 1 3 2 3 7 13 19 14 11 17 20 17 16 15 11
3 5 6 5 4 5 7 7 5 8 13 10 -0 2 21 27 21 13 -7 -17 -7 -3 0 7 3 0 3 2 4 5 3 2 2 5 5 6 7 6 8 8 0 1 8 8 8 13 14 11 10 11 8 7 8 6 7 7 5 4 5 14 26 17 2 0 3 -0 -2 3 7 3 3 5 3 3 5 5 3 2 10 22 19 5 -1 2 3 3 4 8 17 17 10 12 21 18 11 10 9
5 7 5 4 6 5 3 8 14 11 12 11 -5 -3 24 14 -13 -10 -14 -18 -0 4 1 7 2 2 7 4 4 5 4 6 5 5 7 7 8 7 8 8 2 3 8 10 7 4 7 14 18 16 9 5 8 7 6 7 7 7 3 2 14 21 13 4 3 2 1 2 -1 -2 3 5 3 3 5 6 5 1 5 18 23 12 1 -0 2 3 3 3 10 18 14 12 19 18 11 10 8
7 8 6 7 8 5 4 7 7 -2 -2 3 -9 -13 12 15 -2 3 3 -5 5 6 2 6 4 4 6 3 4 4 3 5 4 5 6 4 3 3 4 6 4 2 4 8 9 4 7 15 18 16 11 6 7 7 7 7 4 5 9 5 5 13 17 16 9 0 1 6 -4 -10 0 4 1 4 5 5 8 5 0 8 20 19 8 1 0 0 2 3 6 13 15 14 14 14 14 13 7
Height
5819 5819 5817 5816 5816 5817 5815 5812 5813 5815 5815 5815 5815 5815 5814 5814 5816 5819 5819 5820 5820 5821 5822 5821 5821 5821 5821 5820 5819 5818 5820 5821 5820 5819 5820 5821 5821 5822 5823 5824 5825 5826 5826 5827 5827 5828 5829 5830 5830 5830 5831 5831 5831 5832 5832 5833 5833 5833 5834 5834 5835 5835 5836 5836 5837 5837 5837 5838 5839 5839 5840 5840 5841 5841 5842 5843 5844 5844 5845 5845 5845 5846 5846 5846 5847 5847 5847 5848 5848 5848 5849 5849 5849 5849 5849 5849 5849
5820 5820 5819 5819 5818 5816 5815 5815 5816 5816 5816 5816 5817 5818 5817 5817 5819 5820 5821 5822 5822 5822 5822 5822 5821 5821 5821 5820 5819 5817 5818 5819 5819 5819 5819 5820 5820 5821 5822 5823 5824 5825 5826 5826 5827 5827 5828 5829 5829 5829 5830 5830 5830 5830 5831 5831 5831 5831 5832 5832 5833 5833 5834 5834 5835 5835 5836 5836 5837 5837 5838 5839 5839 5840 5841 5841 5842 5842 5843 5843 5843 5844 5844 5845 5846 5846 5846 5847 5847 5847 5848 5848 5848 5848 5848 5848 5848
5821 5820 5821 5820 5816 5813 5814 5818 5819 5818 5818 5818 5819 5820 5821 5822 5823 5823 5823 5823 5823 5823 5822 5822 5821 5821 5820 5818 5819 5817 5817 5818 5819 5819 5818 5818 5819 5820 5821 5821 5822 5823 5824 5825 5825 5825 5827 5828 5828 5828 5829 5829 5829 5829 5829 5829 5829 5829 5830 5830 5831 5831 5832 5832 5833 5833 5834 5834 5835 5836 5836 5837 5838 5838 5839 5839 5840 5840 5841 5841 5842 5842 5843 5843 5844 5844 5845 5846 5846 5846 5847 5847 5847 5847 5847 5847 5847
5823 5822 5822 5819 5814 5813 5816 5820 5821 5820 5821 5822 5823 5824 5825 5825 5825 5825 5824 5824 5823 5823 5822 5821 5820 5820 5820 5818 5819 5819 5818 5818 5818 5818 5818 5818 5818 5819 5819 5820 5821 5821 5822 5823 5823 5824 5825 5826 5827 5827 5827 5827 5828 5828 5828 5828 5828 5828 5828 5829 5829 5830 5830 5831 5831 5831 5832 5832 5833 5834 5834 5835 5836 5836 5837 5837 5837 5838 5838 5839 5840 5841 5841 5842 5842 5843 5843 5844 5844 5845 5845 5846 5846 5846 5846 5846 5846
5824 5825 5823 5817 5817 5820 5820 5822 5824 5824 5824 5825 5826 5827 5828 5827 5826 5825 5824 5824 5823 5823 5822 5821 5821 5821 5821 5820 5820 5820 5819 5819 5819 5819 5818 5818 5817 5818 5818 5819 5820 5821 5821 5822 5822 5823 5824 5825 5825 5826 5826 5826 5826 5826 5826 5826 5826 5826 5827 5827 5828 5828 5828 5829 5829 5829 5830 5830 5831 5832 5833 5833 5834 5834 5834 5835 5835 5835 5836 5837 5838 5839 5840 5840 5841 5841 5841 5842 5843 5843 5844 5844 5845 5845 5845 5845 5845
5826 5827 5823 5818 5822 5823 5822 5824 5826 5827 5828 5829 5829 5829 5829 5828 5827 5826 5825 5824 5824 5824 5823 5822 5821 5820 5821 5821 5821 5821 5820 5820 5819 5819 5818 5818 5817 5817 5817 5818 5819 5820 5821 5821 5822 5822 5822 5823 5824 5824 5824 5824 5824 5824 5825 5825 5825 5825 5825 5825 5826 5826 5827 5827 5827 5827 5828 5829 5830 5830 5831 5831 5832 5832 5832 5832 5833 5833 5834 5835 5836 5837 5838 5839 5839 5839 5840 5841 5841 5842 5843 5843 5844 5844 5844 5844 5844
5827 5827 5822 5820 5824 5824 5826 5829 5830 5831 5831 5832 5831 5830 5830 5828 5828 5828 5826 5825 5824 5823 5823 5822 5821 5820 5820 5821 5822 5822 5821 5820 5819 5819 5818 5818 5817 5817 5817 5817 5818 5819 5820 5821 5821 5821 5821 5821 5822 5822 5822 5823 5823 5823 5823 5823 5823 5823 5823 5824 5824 5824 5825 5825 5825 5826 5826 5827 5828 5828 5829 5829 5830 5829 5829 5830 5831 5832 5832 5833 5834 5835 5836 5837 5837 5837 5838 5839 5839 5840 5841 5842 5842 5843 5843 5843 5843
5829 5826 5823 5824 5827 5828 5832 5834 5835 5836 5835 5833 5831 5830 5829 5829 5828 5828 5827 5826 5825 5824 5824 5823 5821 5820 5820 5821 5821 5821 5822 5821 5819 5819 5818 5817 5817 5817 5817 5817 5817 5818 5819 5820 5819 5820 5820 5820 5821 5821 5821 5821 5822 5822 5822 5822 5822 5822 5822 5822 5822 5822 5822 5823 5823 5824 5824 5825 5826 5826 5827 5827 5827 5827 5827 5828 5829 5830 5830 5831 5832 5833 5834 5835 5835 5836 5836 5837 5837 5838 5839 5840 5841 5841 5841 5842 5842
5828 5826 5824 5827 5831 5834 5838 5838 5838 5839 5839 5837 5833 5831 5830 5830 5829 5830 5829 5828 5827 5826 5826 5824 5823 5820 5820 5821 5820 5820 5821 5821 5820 5819 5818 5817 5817 5816 5817 5817 5817 5818 5818 5819 5819 5819 5819 5819 5820 5820 5820 5820 5820 5820 5820 5820 5820 5820 5820 5820 5820 5820 5820 5821 5821 5822 5822 5823 5824 5824 5824 5824 5824 5825 5826 5827 5827 5828 5829 5829 5830 5831 5832 5833 5834 5834 5835 5835 5836 5836 5837 5838 5839 5839 5840 5840 5840
5828 5826 5827 5830 5834 5839 5841 5842 5840 5839 5840 5839 5834 5832 5831 5831 5831 5833 5832 5829 5828 5827 5826 5824 5824 5822 5821 5821 5821 5821 5820 5820 5820 5819 5818 5817 5816 5815 5815 5816 5816 5817 5817 5818 5818 5818 5818 5818 5818 5819 5819 5818 5818 5818 5818 5818 5818 5818 5818 5818 5818 5818 5818 5818 5819 5819 5820 5821 5821 5822 5822 5822 5822 5823 5824 5825 5826 5827 5827 5828 5829 5830 5831 5832 5832 5833 5833 5834 5834 5835 5835 5836 5837 5838 5838 5839 5839
5828 5827 5830 5833 5838 5843 5843 5843 5842 5841 5841 5840 5835 5833 5832 5831 5832 5832 5832 5830 5829 5828 5827 5825 5824 5823 5822 5822 5821 5821 5820 5820 5819 5818 5817 5816 5816 5815 5815 5815 5815 5816 5816 5817 5818 5817 5817 5817 5817 5817 5817 5817 5816 5816 5816 5816 5816 5816 5817 5816 5816 5816 5816 5816 5817 5818 5818 5819 5819 5819 5819 5820 5821 5822 5823 5824 5824 5825 5825 5826 5827 5828 5829 5830 5831 5831 5832 5832 5833 5833 5834 5835 5835 5836 5837 5837 5838
5829 5829 5834 5837 5840 5845 5845 5845 5843 5841 5842 5840 5836 5834 5832 5834 5833 5831 5830 5831 5832 5830 5828 5826 5825 5824 5822 5821 5821 5820 5820 5820 5819 5818 5817 5816 5816 5815 5814 5814 5814 5815 5815 5816 5816 5816 5816 5816 5816 5816 5816 5815 5815 5814 5814 5814 5815 5815 5815 5815 5814 5814 5814 5814 5815 5816 5817 5816 5816 5817 5817 5818 5820 5821 5822 5822 5823 5823 5824 5825 5825 5826 5828 5829 5829 5830 5831 5831 5831 5832 5832 5833 5834 5835 5836 5836 5836
5830 5831 5836 5839 5841 5844 5846 5847 5844 5842 5843 5841 5836 5834 5833 5834 5833 5831 5830 5830 5832 5831 5827 5826 5825 5824 5823 5822 5822 5821 5820 5820 5819 5818 5818 5817 5816 5815 5814 5814 5813 5813 5814 5814 5815 5815 5815 5815 5815 5815 5814 5814 5813 5813 5813 5813 5814 5815 5814 5813 5812 5812 5813 5814 5815 5816 5816 5815 5815 5815 5816 5817 5819 5820 5821 5821 5821 5822 5823 5823 5824 5825 5826 5827 5828 5829 5829 5829 5830 5830 5831 5831 5832 5833 5834 5835 5835
5833 5833 5835 5837 5840 5844 5847 5847 5846 5843 5842 5840 5837 5835 5833 5833 5832 5831 5831 5830 5830 5830 5827 5825 5825 5824 5823 5823 5823 5823 5821 5820 5819 5819 5818 5817 5816 5815 5814 5813 5813 5812 5812 5813 5814 5814 5813 5813 5813 5812 5812 5811 5811 5811 5813 5814 5814 5813 5812 5810 5809 5810 5812 5813 5815 5817 5817 5816 5815 5815 5816 5817 5818 5818 5819 5820 5820 5821 5821 5822 5822 5823 5824 5825 5826 5827 5827 5828 5828 5828 5829 5830 5831 5831 5832 5833 5833
5836 5835 5835 5837 5841 5846 5847 5845 5844 5842 5841 5840 5837 5835 5834 5833 5833 5832 5832 5831 5830 5829 5829 5827 5825 5825 5823 5823 5824 5823 5822 5820 5820 5819 5818 5817 5816 5815 5814 5813 5813 5812 5812 5812 5812 5812 5812 5812 5811 5810 5809 5808 5809 5811 5812 5812 5812 5811 5808 5806 5807 5809 5811 5812 5814 5815 5816 5815 5814 5815 5815 5815 5816 5817 5817 5818 5819 5820 5820 5820 5821 5822 5822 5823 5824 5825 5826 5826 5826 5827 5827 5828 5829 5830 5830 5831 5831
5838 5837 5836 5837 5843 5846 5846 5844 5842 5841 5840 5839 5836 5834 5834 5833 5832 5832 5831 5831 5829 5830 5832 5830 5828 5826 5825 5824 5823 5823 5822 5821 5820 5819 5818 5817 5816 5815 5814 5814 5813 5812 5811 5811 5811 5811 5811 5810 5809 5807 5806 5807 5809 5811 5811 5811 5810 5808 5805 5805 5808 5810 5810 5811 5812 5813 5814 5813 5813 5813 5813 5814 5814 5815 5816 5816 5817 5818 5818 5819 5819 5820 5820 5821 5822 5823 5824 5824 5825 5825 5826 5827 5827 5828 5828 5829 5829
5839 5838 5837 5839 5844 5846 5844 5843 5841 5840 5838 5837 5835 5834 5834 5833 5832 5832 5831 5831 5830 5830 5831 5830 5830 5829 5826 5825 5823 5823 5822 5821 5821 5819 5819 5818 5817 5816 5815 5814 5813 5812 5811 5810 5810 5810 5810 5809 5808 5806 5805 5807 5809 5810 5810 5809 5808 5806 5804 5804 5807 5808 5809 5810 5810 5811 5811 5812 5812 5812 5812 5813 5813 5814 5814 5814 5815 5816 5816 5817 5817 5818 5818 5819 5819 5820 5821 5822 5823 5824 5824 5825 5826 5826 5827 5827 5828
5840 5839 5837 5841 5846 5846 5843 5842 5840 5839 5838 5836 5835 5834 5834 5833 5832 5832 5831 5831 5830 5830 5830 5830 5833 5832 5827 5825 5824 5823 5823 5822 5821 5820 5819 5818 5817 5816 5815 5814 5813 5812 5811 5810 5809 5809 5809 5808 5807 5805 5805 5806 5808 5809 5809 5808 5807 5805 5803 5803 5805 5806 5807 5808 5809 5809 5809 5810 5811 5811 5811 5811 5812 5811 5811 5812 5813 5814 5814 5814 5814 5815 5815 5816 5817 5818 5819 5820 5821 5822 5823 5823 5824 5825 5825 5826 5826
5841 5840 5839 5841 5845 5844 5842 5842 5840 5839 5838 5836 5835 5835 5834 5833 5833 5832 5831 5831 5830 5830 5831 5832 5835 5832 5827 5825 5825 5824 5823 5822 5821 5820 5820 5819 5818 5817 5816 5815 5814 5813 5812 5811 5809 5809 5808 5807 5805 5805 5805 5805 5806 5808 5807 5806 5805 5803 5801 5801 5803 5804 5806 5807 5807 5807 5808 5808 5809 5809 5809 5809 5809 5809 5809 5810 5811 5812 5812 5812 5812 5812 5812 5813 5814 5815 5816 5818 5819 5820 5821 5821 5822 5823 5823 5824 5825
5841 5841 5841 5841 5843 5842 5841 5841 5840 5839 5838 5836 5836 5835 5834 5833 5833 5832 5831 5831 5829 5830 5834 5835 5833 5829 5826 5826 5825 5824 5823 5822 5821 5820 5820 5819 5818 5817 5816 5815 5814 5813 5812 5811 5810 5808 5807 5806 5804 5804 5805 5804 5805 5806 5806 5805 5803 5801 5799 5799 5801 5804 5805 5805 5805 5806 5806 5806 5806 5806 5806 5806 5806 5806 5807 5808 5808 5809 5809 5809 5809 5809 5809 5810 5811 5812 5813 5815 5817 5818 5819 5819 5820 5821 5822 5823 5823
5842 5842 5842 5842 5842 5841 5841 5841 5839 5838 5837 5836 5836 5835 5834 5833 5833 5832 5831 5830 5829 5831 5834 5834 5830 5827 5826 5826 5825 5824 5822 5821 5821 5820 5820 5819 5818 5817 5816 5816 5815 5814 5813 5812 5810 5808 5807 5805 5804 5804 5804 5804 5804 5804 5804 5803 5802 5800 5797 5798 5801 5803 5803 5803 5803 5804 5804 5804 5804 5804 5803 5804 5804 5803 5804 5804 5805 5806 5806 5806 5806 5807 5807 5807 5808 5809 5811 5813 5814 5816 5817 5817 5818 5819 5820 5821 5821
5844 5843 5843 5842 5841 5840 5841 5840 5839 5838 5837 5836 5835 5835 5834 5833 5833 5832 5831 5830 5830 5830 5831 5831 5829 5826 5826 5826 5824 5823 5822 5821 5820 5820 5819 5819 5818 5817 5816 5815 5815 5814 5813 5812 5810 5808 5806 5805 5803 5803 5804 5803 5804 5804 5802 5801 5800 5798 5795 5796 5800 5801 5801 5801 5800 5801 5802 5802 5801 5801 5801 5801 5801 5801 5801 5801 5801 5802 5802 5804 5805 5805 5805 5806 5807 5809 5810 5811 5812 5814 5815 5815 5816 5817 5818 5819 5820
5844 5843 5842 5842 5841 5840 5840 5840 5839 5837 5836 5835 5834 5834 5834 5833 5832 5831 5830 5830 5830 5830 5829 5829 5829 5826 5824 5824 5824 5822 5821 5820 5819 5819 5818 5818 5818 5817 5816 5815 5814 5813 5812 5811 5810 5808 5806 5804 5802 5803 5803 5803 5803 5803 5802 5801 5799 5797 5794 5794 5797 5799 5798 5798 5797 5799 5800 5799 5799 5798 5798 5798 5798 5798 5799 5799 5799 5799 5801 5804 5805 5804 5804 5806 5808 5808 5809 5810 5810 5811 5812 5813 5814 5815 5816 5817 5818
5844 5843 5842 5841 5840 5839 5839 5839 5838 5837 5836 5834 5834 5833 5833 5832 5831 5830 5830 5829 5829 5829 5828 5828 5827 5825 5823 5822 5822 5821 5820 5819 5819 5818 5818 5817 5817 5817 5816 5815 5814 5813 5812 5810 5810 5808 5806 5804 5802 5802 5803 5803 5802 5801 5801 5800 5798 5796 5793 5792 5795 5796 5796 5795 5796 5797 5798 5797 5796 5796 5795 5795 5796 5796 5797 5797 5798 5799 5800 5802 5802 5802 5803 5805 5806 5807 5807 5808 5809 5809 5810 5811 5812 5813 5814 5816 5817
5843 5842 5841 5841 5840 5839 5839 5838 5837 5836 5835 5833 5833 5832 5832 5831 5830 5830 5829 5829 5829 5828 5827 5826 5825 5824 5823 5822 5821 5821 5820 5819 5818 5818 5817 5817 5816 5816 5815 5815 5814 5813 5812 5811 5809 5808 5806 5804 5802 5802 5803 5803 5801 5800 5799 5798 5797 5795 5793 5792 5793 5795 5795 5795 5795 5796 5796 5795 5794 5794 5794 5793 5794 5795 5795 5796 5796 5796 5797 5798 5799 5800 5801 5802 5803 5804 5805 5806 5807 5807 5808 5809 5810 5811 5812 5814 5815
5843 5842 5841 5840 5840 5839 5838 5838 5837 5836 5834 5833 5833 5832 5831 5830 5829 5829 5829 5829 5828 5828 5826 5825 5825 5825 5825 5824 5821 5820 5820 5818 5817 5817 5816 5816 5816 5815 5815 5815 5814 5813 5812 5811 5809 5808 5806 5804 5802 5802 5803 5803 5801 5799 5798 5797 5795 5794 5794 5793 5793 5794 5794 5795 5795 5795 5794 5793 5792 5792 5792 5792 5792 5793 5794 5794 5794 5794 5794 5796 5797 5797 5798 5799 5800 5802 5802 5803 5804 5805 5806 5807 5808 5809 5810 5812 5813
5842 5842 5842 5840 5839 5839 5838 5838 5836 5835 5834 5833 5832 5832 5831 5830 5830 5830 5831 5830 5827 5826 5826 5827 5829 5829 5827 5826 5822 5819 5820 5818 5817 5817 5816 5815 5815 5815 5815 5814 5814 5813 5812 5811 5810 5808 5806 5804 5801 5800 5801 5802 5800 5799 5797 5796 5795 5794 5794 5794 5793 5793 5793 5793 5794 5793 5792 5791 5790 5790 5790 5791 5792 5792 5792 5792 5792 5793 5794 5794 5794 5794 5795 5796 5797 5799 5800 5801 5802 5802 5803 5804 5805 5807 5808 5810 5812
5842 5842 5841 5840 5840 5839 5837 5836 5834 5833 5834 5834 5832 5832 5831 5829 5829 5830 5832 5832 5827 5827 5828 5828 5829 5830 5829 5828 5823 5818 5817 5818 5817 5816 5816 5815 5814 5815 5815 5814 5813 5813 5812 5811 5810 5808 5806 5804 5801 5799 5799 5800 5799 5798 5796 5795 5794 5793 5794 5794 5793 5792 5791 5791 5791 5790 5790 5789 5788 5788 5788 5788 5789 5790 5791 5791 5791 5792 5793 5792 5791 5791 5792 5793 5794 5796 5798 5799 5799 5800 5801 5802 5803 5805 5806 5808 5810
5841 5840 5840 5841 5838 5835 5835 5835 5835 5836 5835 5834 5833 5833 5831 5830 5830 5831 5832 5831 5827 5827 5829 5829 5829 5830 5830 5829 5826 5820 5815 5817 5817 5816 5816 5814 5814 5814 5813 5813 5812 5812 5811 5811 5810 5808 5806 5804 5801 5798 5797 5798 5798 5797 5795 5793 5793 5794 5794 5794 5792 5791 5790 5789 5789 5788 5787 5787 5787 5787 5786 5785 5785 5787 5789 5791 5791 5791 5791 5790 5789 5789 5789 5790 5792 5794 5795 5797 5797 5798 5799 5801 5802 5803 5805 5806 5808
5840 5839 5838 5838 5835 5835 5838 5836 5835 5837 5835 5834 5833 5833 5831 5832 5834 5833 5832 5831 5829 5829 5829 5829 5830 5830 5830 5828 5827 5823 5815 5814 5815 5815 5815 5814 5813 5813 5812 5811 5810 5810 5810 5810 5809 5808 5807 5804 5802 5799 5796 5795 5796 5796 5794 5791 5791 5793 5794 5794 5792 5791 5790 5789 5787 5787 5786 5786 5786 5786 5785 5784 5784 5784 5786 5788 5789 5789 5789 5788 5787 5787 5787 5789 5790 5791 5793 5795 5796 5797 5798 5799 5800 5801 5802 5804 5806
5838 5837 5835 5835 5837 5841 5842 5838 5836 5836 5835 5833 5832 5832 5831 5832 5835 5834 5833 5832 5831 5831 5830 5828 5827 5827 5827 5827 5826 5821 5815 5813 5815 5816 5814 5812 5811 5811 5811 5810 5808 5808 5808 5808 5808 5808 5807 5805 5802 5799 5796 5794 5794 5794 5793 5791 5790 5792 5793 5792 5790 5789 5789 5788 5787 5786 5785 5785 5785 5785 5784 5784 5783 5783 5784 5785 5786 5787 5787 5786 5785 5784 5785 5787 5788 5789 5791 5793 5794 5795 5796 5797 5798 5799 5800 5802 5804
5836 5836 5838 5841 5844 5844 5843 5842 5840 5837 5835 5833 5831 5831 5831 5830 5832 5834 5835 5833 5829 5829 5829 5827 5826 5825 5825 5826 5823 5817 5812 5812 5815 5815 5813 5811 5809 5809 5810 5809 5807 5806 5806 5806 5807 5807 5806 5805 5803 5800 5797 5794 5792 5791 5791 5790 5790 5792 5792 5790 5788 5787 5787 5787 5786 5786 5785 5784 5784 5783 5783 5783 5783 5783 5783 5783 5784 5784 5784 5784 5783 5783 5784 5785 5785 5787 5789 5791 5792 5793 5794 5795 5796 5797 5799 5800 5802
5840 5841 5842 5843 5844 5843 5842 5842 5842 5838 5836 5834 5831 5830 5830 5830 5830 5830 5831 5831 5828 5827 5827 5827 5825 5825 5824 5823 5820 5813 5810 5810 5811 5812 5811 5810 5808 5807 5808 5808 5806 5804 5803 5804 5805 5805 5805 5804 5803 5800 5797 5794 5792 5789 5788 5789 5789 5791 5793 5792 5789 5787 5786 5786 5786 5786 5785 5784 5783 5782 5781 5782 5782 5783 5783 5783 5782 5782 5782 5781 5781 5782 5783 5783 5784 5785 5787 5788 5789 5791 5793 5794 5795 5796 5797 5799 5800
5842 5841 5840 5839 5839 5839 5839 5840 5840 5838 5835 5836 5834 5829 5828 5829 5828 5828 5829 5830 5829 5827 5827 5827 5824 5823 5822 5821 5817 5811 5810 5810 5809 5807 5806 5808 5808 5807 5807 5807 5805 5802 5800 5801 5802 5803 5803 5803 5802 5801 5798 5795 5793 5789 5787 5787 5788 5789 5792 5793 5792 5789 5787 5785 5785 5785 5785 5784 5783 5781 5780 5780 5780 5781 5781 5781 5780 5780 5780 5780 5780 5780 5781 5781 5782 5783 5784 5786 5788 5790 5792 5794 5795 5795 5796 5797 5799
5839 5838 5838 5838 5837 5837 5836 5836 5837 5836 5835 5836 5834 5829 5827 5827 5827 5827 5827 5828 5827 5825 5826 5825 5823 5822 5820 5819 5814 5808 5809 5812 5810 5807 5805 5806 5807 5806 5806 5805 5803 5800 5797 5798 5799 5800 5801 5802 5801 5800 5798 5796 5793 5791 5787 5786 5786 5788 5790 5791 5792 5791 5788 5786 5785 5784 5784 5782 5781 5780 5779 5778 5778 5778 5779 5778 5778 5778 5778 5778 5779 5779 5779 5780 5780 5782 5783 5786 5788 5789 5790 5792 5794 5795 5795 5796 5797
5837 5837 5837 5836 5836 5835 5834 5835 5836 5835 5834 5833 5831 5828 5827 5825 5825 5825 5824 5824 5824 5823 5823 5822 5821 5821 5819 5817 5813 5806 5806 5810 5811 5809 5806 5805 5805 5804 5803 5802 5800 5797 5794 5795 5796 5797 5798 5799 5800 5799 5798 5796 5794 5792 5789 5786 5785 5786 5788 5789 5790 5790 5788 5787 5785 5783 5782 5781 5779 5778 5777 5776 5776 5776 5776 5776 5775 5775 5775 5776 5778 5778 5778 5778 5779 5780 5782 5785 5786 5786 5786 5789 5791 5792 5794 5795 5796
5837 5836 5835 5835 5834 5833 5833 5835 5836 5833 5831 5831 5830 5827 5825 5824 5823 5823 5822 5821 5822 5821 5821 5821 5820 5820 5817 5814 5811 5805 5803 5807 5810 5808 5806 5804 5802 5801 5799 5797 5797 5795 5792 5792 5792 5793 5795 5796 5797 5798 5797 5795 5793 5792 5790 5788 5786 5785 5785 5786 5787 5787 5787 5786 5784 5782 5781 5779 5778 5776 5775 5774 5773 5773 5774 5774 5773 5773 5772 5773 5775 5775 5775 5776 5776 5778 5780 5782 5783 5783 5784 5786 5788 5789 5791 5793 5794
5836 5834 5834 5834 5833 5832 5833 5833 5832 5830 5828 5828 5828 5825 5823 5822 5821 5821 5820 5819 5819 5819 5820 5820 5819 5819 5815 5810 5809 5805 5802 5804 5807 5806 5804 5803 5801 5799 5796 5794 5795 5795 5792 5790 5789 5790 5791 5793 5794 5795 5795 5794 5793 5791 5790 5789 5787 5786 5785 5785 5785 5785 5785 5784 5783 5782 5780 5778 5777 5775 5774 5773 5772 5771 5771 5771 5772 5772 5772 5772 5771 5771 5772 5773 5774 5775 5778 5779 5779 5780 5783 5785 5786 5787 5789 5790 5792
5834 5832 5832 5834 5834 5832 5832 5832 5830 5828 5826 5825 5824 5821 5821 5821 5820 5819 5818 5818 5818 5817 5818 5818 5818 5817 5812 5806 5806 5804 5801 5803 5804 5804 5802 5800 5799 5796 5794 5793 5793 5793 5791 5787 5784 5785 5787 5789 5791 5792 5793 5793 5792 5791 5790 5788 5788 5787 5786 5784 5783 5783 5783 5783 5783 5781 5780 5778 5776 5775 5774 5773 5772 5771 5770 5770 5771 5771 5772 5772 5770 5770 5770 5770 5771 5773 5774 5776 5777 5778 5781 5782 5784 5785 5787 5788 5790
5832 5832 5833 5833 5833 5831 5831 5830 5827 5825 5825 5822 5819 5817 5819 5819 5819 5818 5818 5818 5818 5816 5816 5816 5815 5814 5808 5803 5803 5803 5801 5802 5802 5801 5800 5798 5797 5794 5792 5792 5791 5791 5789 5784 5780 5780 5783 5785 5787 5788 5790 5790 5790 5789 5789 5788 5787 5786 5786 5784 5783 5782 5782 5782 5782 5781 5779 5778 5776 5775 5774 5773 5773 5771 5771 5770 5770 5770 5770 5770 5770 5769 5769 5769 5769 5770 5772 5773 5774 5776 5778 5779 5781 5783 5785 5787 5787
5832 5833 5833 5831 5829 5828 5827 5824 5822 5821 5821 5819 5817 5817 5819 5819 5818 5818 5817 5816 5816 5816 5815 5814 5813 5810 5804 5800 5802 5801 5800 5800 5799 5799 5798 5796 5794 5793 5791 5790 5790 5790 5788 5784 5779 5777 5778 5780 5783 5784 5786 5787 5787 5787 5787 5786 5786 5785 5785 5784 5782 5781 5780 5780 5780 5780 5779 5778 5776 5775 5774 5773 5773 5771 5770 5769 5769 5769 5768 5768 5768 5769 5769 5768 5769 5769 5770 5771 5772 5774 5775 5777 5779 5781 5782 5784 5786
5830 5831 5831 5827 5824 5824 5823 5821 5819 5817 5817 5817 5816 5816 5816 5817 5818 5817 5815 5814 5814 5814 5813 5813 5811 5807 5801 5798 5799 5800 5800 5798 5795 5795 5795 5793 5791 5790 5789 5788 5789 5788 5787 5784 5780 5776 5774 5775 5778 5781 5782 5784 5784 5784 5784 5784 5784 5783 5783 5782 5781 5780 5779 5779 5779 5779 5778 5777 5776 5775 5774 5773 5772 5771 5770 5769 5769 5768 5767 5767 5766 5767 5767 5767 5768 5768 5769 5769 5770 5771 5773 5774 5776 5778 5780 5782 5784
5826 5827 5826 5823 5822 5821 5819 5818 5817 5815 5815 5815 5814 5814 5814 5815 5816 5816 5814 5813 5812 5811 5810 5811 5808 5802 5798 5796 5795 5796 5796 5795 5792 5790 5788 5789 5788 5787 5786 5786 5786 5786 5785 5783 5780 5777 5774 5773 5773 5776 5778 5780 5781 5781 5781 5781 5781 5780 5780 5780 5779 5778 5778 5778 5778 5778 5777 5776 5775 5774 5773 5772 5771 5770 5769 5769 5768 5767 5767 5766 5765 5765 5765 5765 5765 5766 5767 5767 5768 5769 5771 5773 5775 5777 5778 5780 5782
5823 5823 5821 5820 5820 5818 5817 5816 5815 5814 5813 5812 5813 5815 5814 5813 5814 5814 5812 5811 5809 5807 5807 5807 5804 5799 5795 5794 5794 5792 5789 5789 5789 5788 5786 5785 5785 5784 5783 5783 5783 5783 5782 5782 5780 5777 5775 5772 5770 5771 5774 5776 5777 5778 5778 5778 5778 5777 5777 5777 5777 5776 5776 5776 5776 5776 5776 5775 5774 5773 5772 5771 5770 5769 5768 5768 5767 5766 5765 5765 5764 5764 5764 5764 5763 5764 5764 5765 5766 5767 5769 5772 5774 5776 5778 5779 5780
5821 5820 5818 5818 5817 5815 5814 5813 5812 5812 5812 5811 5813 5815 5812 5811 5812 5811 5810 5809 5808 5806 5804 5803 5800 5796 5793 5792 5793 5790 5786 5784 5785 5787 5786 5783 5782 5782 5781 5780 5780 5780 5779 5779 5777 5775 5773 5771 5769 5768 5770 5772 5773 5774 5774 5774 5774 5773 5773 5774 5774 5774 5774 5774 5773 5774 5774 5774 5773 5772 5770 5770 5769 5768 5767 5766 5766 5765 5765 5764 5763 5763 5764 5763 5763 5762 5762 5763 5764 5765 5767 5770 5772 5774 5776 5778 5780
5819 5818 5817 5815 5814 5813 5812 5812 5812 5813 5814 5812 5812 5812 5811 5810 5811 5810 5808 5806 5805 5804 5803 5801 5796 5792 5791 5791 5789 5786 5784 5782 5780 5781 5783 5781 5779 5779 5778 5777 5776 5776 5776 5775 5774 5772 5769 5767 5767 5767 5767 5769 5769 5770 5770 5770 5770 5770 5770 5771 5771 5771 5771 5771 5771 5771 5771 5771 5771 5771 5769 5768 5768 5767 5766 5766 5765 5764 5763 5763 5762 5762 5762 5762 5762 5762 5762 5762 5762 5763 5765 5768 5770 5772 5774 5776 5779
5816 5816 5814 5813 5812 5811 5811 5812 5812 5812 5812 5811 5811 5812 5810 5809 5809 5808 5806 5803 5801 5802 5800 5798 5795 5790 5789 5788 5784 5781 5780 5779 5777 5776 5778 5777 5775 5775 5774 5774 5773 5772 5772 5770 5769 5768 5766 5764 5763 5763 5764 5765 5765 5765 5765 5766 5766 5766 5766 5767 5767 5768 5768 5768 5768 5768 5768 5769 5769 5769 5768 5767 5766 5765 5765 5764 5764 5763 5762 5761 5761 5761 5761 5761 5761 5761 5762 5762 5761 5762 5763 5766 5768 5770 5771 5774 5776
5814 5814 5812 5811 5810 5810 5810 5810 5810 5809 5810 5810 5811 5811 5808 5808 5808 5806 5803 5799 5798 5798 5796 5794 5792 5790 5788 5784 5779 5777 5776 5775 5773 5772 5773 5772 5771 5771 5770 5770 5769 5768 5767 5765 5764 5764 5763 5761 5759 5759 5759 5759 5759 5759 5759 5760 5760 5761 5761 5762 5763 5764 5764 5764 5764 5764 5765 5766 5766 5766 5766 5765 5764 5763 5763 5763 5762 5762 5761 5760 5760 5759 5759 5759 5759 5760 5761 5761 5762 5762 5763 5764 5766 5768 5769 5771 5772
5814 5812 5811 5809 5808 5807 5807 5807 5807 5807 5807 5807 5807 5806 5804 5805 5806 5802 5798 5794 5794 5795 5793 5790 5788 5786 5784 5780 5776 5774 5772 5771 5769 5768 5768 5768 5766 5766 5765 5765 5765 5764 5762 5761 5760 5759 5758 5757 5755 5753 5751 5750 5749 5749 5750 5751 5753 5755 5756 5757 5758 5759 5760 5760 5761 5761 5761 5762 5763 5764 5764 5763 5762 5762 5761 5761 5761 5761 5760 5759 5758 5758 5758 5758 5758 5759 5760 5760 5760 5761 5762 5763 5764 5765 5767 5768 5770
5812 5811 5809 5808 5806 5805 5805 5805 5805 5804 5804 5804 5803 5802 5801 5802 5802 5799 5793 5790 5790 5789 5787 5785 5783 5781 5779 5776 5773 5771 5768 5766 5763 5762 5763 5763 5762 5762 5761 5760 5760 5759 5758 5757 5755 5754 5753 5751 5748 5745 5744 5744 5743 5742 5742 5743 5745 5747 5749 5750 5752 5754 5755 5756 5757 5756 5756 5758 5759 5760 5760 5760 5760 5759 5759 5758 5759 5759 5759 5758 5757 5756 5756 5757 5757 5758 5759 5759 5759 5759 5760 5761 5762 5764 5764 5766 5768
5810 5809 5808 5806 5804 5803 5803 5803 5802 5802 5801 5801 5800 5799 5798 5797 5796 5793 5788 5785 5784 5782 5781 5780 5778 5776 5773 5770 5768 5766 5763 5761 5758 5756 5755 5756 5758 5758 5757 5757 5756 5755 5754 5753 5751 5749 5748 5745 5740 5738 5738 5738 5738 5738 5738 5738 5739 5741 5741 5741 5744 5747 5749 5751 5752 5752 5752 5753 5755 5755 5756 5757 5757 5757 5756 5756 5756 5757 5757 5757 5756 5756 5755 5755 5756 5757 5757 5758 5757 5757 5758 5759 5761 5762 5762 5764 5766
5807 5806 5805 5804 5801 5800 5800 5799 5798 5798 5796 5796 5796 5795 5794 5793 5790 5786 5783 5780 5777 5776 5776 5774 5772 5770 5767 5764 5763 5761 5758 5756 5755 5753 5752 5752 5753 5752 5752 5752 5752 5751 5750 5748 5746 5744 5742 5739 5735 5732 5731 5733 5735 5735 5734 5734 5736 5737 5737 5736 5737 5739 5742 5745 5746 5747 5747 5748 5750 5751 5752 5753 5753 5754 5754 5753 5754 5754 5754 5755 5755 5754 5754 5754 5754 5755 5755 5756 5756 5756 5757 5757 5758 5760 5761 5762 5764
5805 5804 5802 5801 5799 5798 5797 5795 5795 5794 5792 5792 5791 5789 5788 5790 5786 5780 5777 5776 5773 5771 5769 5766 5764 5762 5760 5759 5758 5756 5755 5754 5753 5751 5749 5748 5747 5746 5745 5746 5746 5745 5744 5743 5741 5738 5736 5734 5731 5728 5727 5730 5733 5732 5730 5729 5731 5732 5733 5733 5733 5733 5734 5737 5740 5741 5742 5743 5745 5746 5748 5749 5750 5750 5751 5751 5751 5751 5751 5752 5753 5753 5753 5752 5752 5752 5752 5753 5755 5755 5755 5755 5756 5758 5759 5760 5761
5802 5801 5799 5798 5797 5796 5794 5792 5791 5790 5787 5786 5787 5785 5783 5785 5782 5774 5772 5771 5767 5764 5761 5758 5757 5756 5754 5754 5753 5751 5750 5749 5747 5745 5744 5742 5741 5740 5739 5739 5739 5739 5739 5739 5737 5734 5730 5727 5725 5722 5721 5725 5727 5726 5726 5726 5726 5727 5727 5728 5729 5730 5730 5731 5733 5735 5736 5738 5740 5742 5743 5744 5745 5746 5747 5748 5748 5748 5748 5749 5750 5751 5751 5751 5751 5751 5751 5751 5752 5753 5753 5753 5754 5756 5757 5758 5760
5798 5797 5795 5794 5792 5790 5789 5787 5786 5785 5783 5781 5781 5781 5778 5779 5779 5772 5766 5763 5759 5758 5755 5751 5751 5749 5747 5746 5745 5743 5742 5741 5740 5738 5737 5736 5735 5734 5734 5733 5732 5731 5731 5732 5732 5730 5726 5721 5718 5715 5715 5718 5721 5721 5720 5720 5720 5721 5722 5722 5725 5727 5727 5727 5727 5728 5730 5732 5735 5737 5738 5739 5741 5742 5743 5744 5744 5745 5745 5745 5746 5748 5748 5749 5750 5750 5750 5750 5750 5751 5751 5751 5752 5754 5756 5757 5759
5793 5792 5791 5789 5787 5785 5784 5782 5780 5779 5778 5776 5777 5777 5774 5774 5774 5769 5760 5754 5752 5752 5751 5748 5745 5743 5741 5740 5737 5735 5733 5731 5730 5729 5727 5727 5727 5727 5727 5725 5724 5723 5723 5723 5724 5724 5721 5715 5711 5708 5708 5711 5714 5714 5714 5713 5714 5716 5716 5717 5720 5722 5723 5724 5724 5724 5725 5726 5728 5730 5732 5734 5736 5738 5739 5740 5740 5741 5742 5742 5743 5744 5745 5747 5748 5749 5748 5748 5748 5748 5749 5750 5751 5753 5754 5755 5756
5790 5788 5787 5785 5784 5782 5781 5779 5776 5774 5772 5771 5771 5772 5772 5771 5768 5762 5753 5748 5747 5746 5744 5741 5738 5735 5733 5732 5729 5726 5724 5723 5721 5718 5715 5714 5714 5715 5716 5716 5716 5716 5715 5714 5714 5715 5714 5710 5705 5702 5701 5704 5706 5707 5707 5707 5707 5710 5711 5712 5715 5716 5717 5720 5721 5722 5722 5723 5724 5725 5727 5729 5731 5733 5734 5735 5736 5737 5738 5739 5739 5740 5742 5743 5745 5746 5747 5747 5746 5746 5747 5749 5750 5751 5752 5753 5755
5786 5785 5783 5782 5780 5778 5776 5775 5774 5771 5767 5765 5763 5763 5767 5767 5763 5756 5747 5743 5744 5741 5736 5733 5729 5727 5725 5723 5720 5717 5715 5713 5711 5707 5704 5701 5700 5702 5704 5706 5708 5708 5707 5706 5704 5702 5703 5702 5699 5696 5694 5695 5698 5700 5700 5700 5700 5702 5704 5705 5707 5709 5711 5713 5715 5716 5718 5721 5723 5724 5725 5727 5727 5728 5729 5729 5731 5733 5734 5735 5736 5737 5738 5739 5741 5743 5744 5745 5745 5745 5746 5747 5749 5750 5751 5752 5754